Location: Cheching
(60.0667°N, 164.2167°W)
Time: 14:06:04
(UTC+00:00)

STRAND 1 - Pass Details

Date: 17 January 2021
Orbit: 768 x 780 km, 98.4° (Epoch: 04 March)

Event Time Altitude Azimuth Distance (km) Brightness Sun altitude
Rises 14:45:41 0° 102° (ESE) 3,246 ? -35.1°
Reaches altitude 10° 14:48:35 10° 85° (E) 2,324 ? -34.8°
Maximum altitude 14:52:04 19° 42° (NE) 1,791 ? -34.4°
Drops below altitude 10° 14:55:34 10° 359° (N) 2,337 ? -34.0°
Enters shadow 14:55:39 10° 358° (N) 2,360 ? -34.0°
